time_stamp(utc),avg(mph),gust(mph),direction(deg),12m_air_temp(f),sonic_u(cm/s),sonic_v(cm/s),sonic_w(cm/s),pressure,2m_air_temp(f),pyranometer(W/m^2)
"2017-09-19 00:02:42+00",25.3,27.3,,70.8,840,701,45,1016.12,70.9,0
"2017-09-19 00:07:42+00",21.9,24.9,,70.9,804,554,45,1016.21,70.9,0
"2017-09-19 00:12:42+00",24.6,26.6,,70.7,886,639,34,1016.21,70.9,0
"2017-09-19 00:17:42+00",22.4,24.4,,70.8,781,601,37,1016.21,70.9,0
"2017-09-19 00:22:42+00",25.2,27.2,,70.6,949,604,57,1016.22,70.7,0
"2017-09-19 00:27:42+00",25.9,28.9,,70.6,906,693,47,1016.24,70.7,0
"2017-09-19 00:32:42+00",26.1,28.1,,70.4,993,617,64,1016.21,70.6,0
"2017-09-19 00:37:42+00",24.5,27.5,,70.6,928,594,70,1016.07,70.6,0
"2017-09-19 00:42:42+00",24.8,27.8,,70.5,923,615,73,1016.12,70.6,0
"2017-09-19 00:47:42+00",26.4,29.4,,70.4,950,683,63,1016.01,70.5,0
"2017-09-19 00:52:42+00",24.4,26.4,,70.5,815,675,55,1015.91,70.6,0
"2017-09-19 00:57:42+00",25.9,27.9,,70.4,934,671,51,1015.94,70.5,0
"2017-09-19 01:02:42+00",29.6,30.6,,70.2,1075,758,50,1015.86,70.4,0
"2017-09-19 01:07:42+00",26.2,29.2,,70.3,883,720,46,1016,70.4,0
"2017-09-19 01:12:42+00",22.3,26.3,,70.4,795,584,47,1016.07,70.5,0
"2017-09-19 01:17:42+00",25.0,27.0,,70.2,928,620,58,1016.06,70.4,0
"2017-09-19 01:22:42+00",27.5,30.5,,70.1,989,715,58,1016.04,70.3,0
"2017-09-19 01:27:42+00",27.5,30.5,,70.2,997,705,47,1015.84,70.3,0
"2017-09-19 01:32:42+00",25.5,27.5,,70.1,971,599,44,1015.81,70.2,0
"2017-09-19 01:37:42+00",23.2,26.2,,70.2,842,593,39,1015.71,70.3,0
"2017-09-19 01:42:42+00",25.8,28.8,,70.2,921,669,45,1015.71,70.4,0
"2017-09-19 01:47:42+00",26.3,29.3,,70.1,984,650,55,1015.71,70.2,0
"2017-09-19 01:52:42+00",24.1,29.1,,70.1,920,565,61,1015.5,70.2,0
"2017-09-19 01:57:42+00",25.3,27.3,,70.1,897,660,48,1015.47,70.2,0
"2017-09-19 02:02:42+00",28.5,32.5,,70.2,1021,742,49,1015.41,70.2,0
"2017-09-19 02:07:42+00",29.0,32.0,,70.2,983,795,37,1015.37,70.2,0
"2017-09-19 02:12:42+00",26.7,30.7,,70.2,968,682,35,1015.58,70.2,0
"2017-09-19 02:17:42+00",26.1,31.1,,70.4,923,690,63,1015.54,70.3,0
"2017-09-19 02:22:42+00",29.3,34.3,,70.2,1019,796,65,1015.49,70.3,0
"2017-09-19 02:27:42+00",26.4,29.4,,70.1,943,695,47,1015.42,70.2,0
"2017-09-19 02:32:42+00",25.7,29.7,,70.2,893,691,35,1015.54,70.2,0
"2017-09-19 02:37:42+00",24.5,28.5,,70.2,824,678,40,1015.52,70.3,0
"2017-09-19 02:42:42+00",24.4,29.4,,69.9,807,684,45,1015.57,70.2,0
"2017-09-19 02:47:42+00",22.3,28.3,,69.9,771,603,47,1015.47,70,0
"2017-09-19 02:52:42+00",25.1,30.1,,69.8,810,711,14,1015.42,70,0
"2017-09-19 02:57:42+00",22.2,26.2,,69.8,767,600,44,1015.42,70,0
"2017-09-19 03:02:42+00",24.6,28.6,,69.6,884,636,34,1015.29,69.8,0
"2017-09-19 03:07:42+00",25.3,29.3,,69.6,810,717,15,1015.31,69.8,0
"2017-09-19 03:12:42+00",25.4,28.4,,69.5,807,725,18,1015.26,69.7,0
"2017-09-19 03:17:42+00",23.9,25.9,,69.6,748,687,23,1015.3,69.8,0
"2017-09-19 03:22:42+00",23.4,26.4,,69.6,709,700,26,1015.19,69.7,0
"2017-09-19 03:27:42+00",25.6,29.6,,69.6,873,700,36,1015.15,69.7,0
"2017-09-19 03:32:42+00",23.7,27.7,,69.6,886,579,51,1015.13,69.7,0
"2017-09-19 03:37:42+00",24.6,27.6,,69.6,891,635,37,1015.09,69.7,0
"2017-09-19 03:42:42+00",24.2,29.2,,69.7,905,581,24,1015.2,69.7,0
"2017-09-19 03:47:42+00",22.9,26.9,,69.7,881,533,60,1015.19,69.7,0
"2017-09-19 03:52:42+00",24.2,29.2,,69.6,912,573,33,1015.08,69.7,0
"2017-09-19 03:57:42+00",25.4,28.4,,69.5,915,660,22,1015.01,69.6,0
"2017-09-19 04:02:42+00",19.9,23.9,,69.6,755,467,76,1015.04,69.7,0
"2017-09-19 04:07:42+00",25.9,27.9,,69.5,901,694,25,1015.02,69.6,0
"2017-09-19 04:12:42+00",22.5,26.5,,69.4,848,538,49,1015.09,69.5,0
"2017-09-19 04:17:42+00",20.3,23.3,,69.5,769,474,61,1015.01,69.6,0
"2017-09-19 04:22:42+00",25.7,28.7,,69.4,870,717,21,1014.85,69.5,0
"2017-09-19 04:27:42+00",25.4,29.4,,69.4,895,668,35,1014.91,69.6,0
"2017-09-19 04:32:42+00",20.9,27.9,,69.5,688,584,33,1014.93,69.6,0
"2017-09-19 04:37:42+00",22.4,26.4,,69.5,761,618,29,1014.73,69.5,0
"2017-09-19 04:42:42+00",22.6,26.6,,69.4,728,642,28,1014.77,69.5,0
"2017-09-19 04:47:42+00",24.4,27.4,,69.4,736,720,16,1014.76,69.5,0
"2017-09-19 04:52:42+00",24.6,27.6,,69.5,760,713,21,1014.78,69.6,0
"2017-09-19 04:57:42+00",24.4,28.4,,69.4,746,723,29,1014.64,69.5,0
"2017-09-19 05:02:42+00",22.2,24.2,,69.6,672,661,26,1014.62,69.6,0
"2017-09-19 05:07:42+00",25.6,29.6,,69.5,760,764,8,1014.57,69.5,0
"2017-09-19 05:12:42+00",22.8,26.8,,69.6,799,603,40,1014.55,69.6,0
"2017-09-19 05:17:42+00",20.2,23.2,,69.7,687,546,33,1014.6,69.5,0
"2017-09-19 05:22:42+00",21.0,25.0,,69.7,726,558,54,1014.56,69.7,0
"2017-09-19 05:27:42+00",22.2,29.2,,69.7,766,598,45,1014.58,69.6,0
"2017-09-19 05:32:42+00",23.4,26.4,,69.6,799,631,29,1014.65,69.5,0
"2017-09-19 05:37:42+00",23.8,27.8,,69.7,878,593,52,1014.6,69.6,0
"2017-09-19 05:42:42+00",22.1,26.1,,69.8,811,552,37,1014.59,69.6,0
"2017-09-19 05:47:42+00",26.2,31.2,,69.8,891,715,22,1014.44,69.5,0
"2017-09-19 05:52:42+00",22.8,24.8,,69.8,710,656,10,1014.35,69.5,0
"2017-09-19 05:57:42+00",23.3,27.3,,69.9,699,692,20,1014.18,69.5,0
"2017-09-19 06:02:42+00",23.3,25.3,,70,758,655,22,1014.27,69.5,0
"2017-09-19 06:07:42+00",22.4,26.4,,70,734,625,29,1014.19,69.6,0
"2017-09-19 06:12:42+00",18.3,25.3,,70.1,619,500,66,1014.12,69.6,0
"2017-09-19 06:17:42+00",23.4,26.4,,70.1,732,667,24,1013.98,69.7,0
"2017-09-19 06:22:42+00",24.0,29.0,,70.1,716,718,13,1013.99,69.8,0
"2017-09-19 06:27:42+00",22.5,26.5,,70,654,695,33,1013.82,69.9,0
"2017-09-19 06:32:42+00",23.8,26.8,,70,687,724,5,1013.61,69.8,0
"2017-09-19 06:37:42+00",24.2,27.2,,70,671,761,-10,1013.48,69.8,0
"2017-09-19 06:42:42+00",23.3,26.3,,70,762,655,46,1013.44,69.9,0
"2017-09-19 06:47:42+00",24.7,30.7,,70,766,710,31,1013.39,69.9,0
"2017-09-19 06:52:42+00",25.6,29.6,,70.2,861,706,27,1013.45,70,0
"2017-09-19 06:57:42+00",22.8,29.8,,70.2,732,652,29,1013.39,70,0
"2017-09-19 07:02:42+00",23.2,30.2,,70.2,711,679,27,1013.26,70,0
"2017-09-19 07:07:42+00",26.3,31.3,,70.2,899,712,47,1013.19,70,0
"2017-09-19 07:12:42+00",27.4,32.4,,70.1,871,784,27,1013.03,70,0
"2017-09-19 07:17:42+00",24.9,28.9,,70,764,739,9,1013,69.9,0
"2017-09-19 07:22:42+00",26.5,31.5,,70,739,845,21,1012.96,69.8,0
"2017-09-19 07:27:42+00",29.3,33.3,,70,923,839,27,1013.06,69.9,0
"2017-09-19 07:32:42+00",27.4,33.4,,70,858,795,30,1013.09,69.8,0
"2017-09-19 07:37:42+00",27.8,31.8,,70,975,741,54,1013.03,69.8,0
"2017-09-19 07:42:42+00",27.1,31.1,,70,854,773,22,1013.13,69.9,0
"2017-09-19 07:47:42+00",30.0,33.0,,69.9,1023,809,30,1013.13,69.8,0
"2017-09-19 07:52:42+00",29.9,32.9,,69.9,1016,818,40,1013.13,69.8,0
"2017-09-19 07:57:42+00",27.7,33.7,,69.9,889,793,31,1013.08,69.9,0
"2017-09-19 08:02:42+00",22.9,24.9,,69.9,745,642,34,1013.12,69.9,0
"2017-09-19 08:07:42+00",24.1,27.1,,69.9,678,762,27,1013.08,69.9,0
"2017-09-19 08:12:42+00",23.9,27.9,,69.8,698,730,6,1012.99,69.8,0
"2017-09-19 08:17:42+00",28.9,32.9,,69.8,879,840,12,1012.96,69.7,0
"2017-09-19 08:22:42+00",26.9,31.9,,69.9,878,761,43,1012.9,69.7,0
"2017-09-19 08:27:42+00",28.8,33.8,,69.9,846,880,24,1012.84,69.8,0
"2017-09-19 08:32:42+00",28.4,32.4,,69.8,857,841,32,1012.77,69.7,0
"2017-09-19 08:37:42+00",23.8,30.8,,70.1,673,754,32,1012.69,69.8,0
"2017-09-19 08:42:42+00",27.1,31.1,,70.1,818,805,24,1012.56,69.9,0
"2017-09-19 08:47:42+00",22.7,25.7,,70.1,649,712,61,1012.59,69.9,0
"2017-09-19 08:52:42+00",27.0,31.0,,70.1,737,871,-6,1012.41,69.9,0
"2017-09-19 08:57:42+00",23.9,27.9,,70.2,562,854,38,1012.27,70,0
"2017-09-19 09:02:42+00",22.1,26.1,,70.1,603,730,36,1012.25,70,0
"2017-09-19 09:07:42+00",25.2,29.2,,70,700,820,38,1012.17,69.9,0
"2017-09-19 09:12:42+00",28.9,31.9,,70,736,997,14,1011.99,69.9,0
"2017-09-19 09:17:42+00",24.1,30.1,,70.1,696,746,47,1011.95,70,0
"2017-09-19 09:22:42+00",24.2,32.2,,70,622,825,10,1012.01,70,0
"2017-09-19 09:27:42+00",25.6,31.6,,70.1,698,825,20,1012.04,70,0
"2017-09-19 09:32:42+00",21.3,28.3,,70.2,536,736,34,1012.02,70,0
"2017-09-19 09:37:42+00",26.1,30.1,,70.1,632,930,22,1012.04,70,0
"2017-09-19 09:42:42+00",28.5,33.5,,70.2,793,898,15,1012.01,70,0
"2017-09-19 09:47:42+00",30.0,35.0,,70.3,741,1048,20,1012.14,70.1,0
"2017-09-19 09:52:42+00",29.7,32.7,,70.4,729,1047,10,1012.17,70.1,0
"2017-09-19 09:57:42+00",26.5,31.5,,70.4,665,923,23,1012.11,70.2,0
"2017-09-19 10:02:42+00",30.7,35.7,,70.5,851,969,13,1012.18,70.3,0
"2017-09-19 10:07:42+00",26.3,31.3,,70.5,595,963,13,1012.25,70.2,0
"2017-09-19 10:12:42+00",24.8,29.8,,70.5,665,798,15,1012.3,70.4,0
"2017-09-19 10:17:42+00",27.6,31.6,,70.7,657,1001,9,1012.33,70.4,0
"2017-09-19 10:22:42+00",28.5,33.5,,70.8,679,1028,15,1012.41,70.5,0
"2017-09-19 10:27:42+00",23.9,31.9,,70.8,682,735,23,1012.55,70.6,0
"2017-09-19 10:32:42+00",31.2,34.2,,71,882,974,11,1012.47,70.7,0
"2017-09-19 10:37:42+00",28.7,32.7,,71,827,874,30,1012.44,70.8,0
"2017-09-19 10:42:42+00",29.3,36.3,,71,877,878,42,1012.5,70.8,0
"2017-09-19 10:47:42+00",25.0,29.0,,71,731,758,1,1012.43,70.8,0
"2017-09-19 10:52:42+00",27.3,32.3,,71,848,800,45,1012.36,70.8,0
"2017-09-19 10:57:42+00",25.9,29.9,,71,813,746,34,1012.42,70.9,0
"2017-09-19 11:02:42+00",29.5,37.5,,71,992,805,54,1012.33,70.9,0
"2017-09-19 11:07:42+00",25.4,28.4,,71,734,778,10,1012.38,71,0
"2017-09-19 11:12:42+00",29.9,32.9,,70.9,1011,818,45,1012.32,70.9,0
"2017-09-19 11:17:42+00",26.2,29.2,,70.8,816,770,35,1012.26,70.7,0
"2017-09-19 11:22:42+00",31.8,35.8,,70.8,1077,870,50,1012.27,70.4,0
"2017-09-19 11:27:42+00",29.9,34.9,,70.6,945,862,33,1012.15,70.3,0
"2017-09-19 11:32:42+00",32.2,36.2,,70.6,1043,903,39,1011.99,70.2,0
"2017-09-19 11:37:42+00",28.1,33.1,,70.2,864,823,38,1011.89,70.3,0
"2017-09-19 11:42:42+00",30.6,35.6,,70.2,880,923,18,1012,70.3,0
"2017-09-19 11:47:42+00",29.5,32.5,,70.5,833,897,27,1011.89,70.3,0
"2017-09-19 11:52:42+00",28.4,33.4,,70.8,720,961,28,1011.85,70.4,0
"2017-09-19 11:57:42+00",30.2,35.2,,70.8,839,944,29,1011.8,70.4,0
"2017-09-19 12:02:42+00",31.2,35.2,,70.9,977,905,37,1012,70.4,0
"2017-09-19 12:07:42+00",32.4,37.4,,71,1025,926,45,1011.99,70.6,0
"2017-09-19 12:12:42+00",30.2,35.2,,71,882,917,56,1012.17,70.6,0
"2017-09-19 12:17:42+00",32.5,36.5,,70.9,1014,919,69,1012.05,70.5,0
"2017-09-19 12:22:42+00",32.5,37.5,,70.3,405,936,379,1012,70.4,0
"2017-09-19 12:27:42+00",30.2,33.2,,70,999,832,63,1012.11,70.3,0
"2017-09-19 12:32:42+00",33.4,38.4,,69.5,947,920,181,1012.01,70.1,0
"2017-09-19 12:37:42+00",36.1,41.1,,70.3,-4,1002,682,1012,70,0
"2017-09-19 12:42:42+00",33.2,36.2,,70.8,817,919,229,1012.12,70.1,0
"2017-09-19 12:47:42+00",34.2,36.2,,71.1,998,1011,45,1012.17,70.2,0
"2017-09-19 12:52:42+00",33.8,36.8,,71.1,963,1000,17,1011.97,70.3,0
"2017-09-19 12:57:42+00",37.1,42.1,,71,1127,1086,39,1011.94,70.4,11.6
"2017-09-19 13:02:42+00",37.0,41.0,,70.8,989,1172,19,1012.05,70.4,1.1
"2017-09-19 13:07:42+00",36.2,42.2,,70.8,1040,1095,19,1011.92,70.4,44.3
"2017-09-19 13:12:42+00",35.1,38.1,,70.9,810,1296,38,1011.73,70.7,160
"2017-09-19 13:17:42+00",37.3,41.3,,70.8,994,1201,12,1011.71,70.9,123.3
"2017-09-19 13:22:42+00",33.7,40.7,,70.7,931,1075,38,1011.72,70.8,59.4
"2017-09-19 13:27:42+00",34.2,40.2,,70.6,855,1192,37,1011.63,70.7,65.4
"2017-09-19 13:32:42+00",34.6,38.6,,70.5,791,1291,38,1011.63,70.6,69.1
"2017-09-19 13:37:42+00",32.3,37.3,,70.6,769,1168,45,1011.72,70.7,54.4
"2017-09-19 13:42:42+00",32.2,37.2,,70.5,793,1143,14,1011.62,70.6,52.4
"2017-09-19 13:47:42+00",34.8,37.8,,70.6,784,1310,19,1011.71,70.6,7.5
"2017-09-19 13:52:42+00",29.6,36.6,,70.8,723,1068,61,1011.87,70.6,19.7
"2017-09-19 13:57:42+00",35.9,40.9,,70.9,995,1091,15,1011.79,70.7,29.3
"2017-09-19 14:02:42+00",34.9,37.9,,70.2,1028,1018,23,1011.89,70.4,57.7
"2017-09-19 14:07:42+00",38.0,44.0,,68.8,-1353,1134,1238,1011.67,70.1,49.3
"2017-09-19 14:12:42+00",35.8,39.8,,68.6,-148,1202,594,1011.86,70,43.8
"2017-09-19 14:17:42+00",33.2,38.2,,69.8,915,994,45,1011.85,70,20.5
"2017-09-19 14:22:42+00",35.8,39.8,,70.1,550,1112,280,1011.85,70,32.8
"2017-09-19 14:27:42+00",39.0,43.0,,68.5,-473,1201,793,1011.61,69.7,77.8
"2017-09-19 14:32:42+00",35.7,39.7,,69.5,757,1208,118,1011.56,69.8,121.7
"2017-09-19 14:37:42+00",34.0,38.0,,70,890,1122,23,1011.65,70,84.4
"2017-09-19 14:42:42+00",32.8,37.8,,70.2,863,1081,41,1011.64,70.1,89
"2017-09-19 14:47:42+00",33.0,39.0,,70.4,880,1086,49,1011.61,70.5,103.4
"2017-09-19 14:52:42+00",35.4,39.4,,70.4,885,1233,33,1011.48,70.6,132.6
"2017-09-19 14:57:42+00",34.1,39.1,,70.3,787,1250,28,1011.37,70.5,77.4
"2017-09-19 15:02:42+00",34.8,38.8,,70.4,789,1301,15,1011.42,70.6,47.2
"2017-09-19 15:07:42+00",34.5,41.5,,70.4,822,1248,53,1011.36,70.4,54.3
"2017-09-19 15:12:42+00",37.0,41.0,,70.2,908,1319,14,1011.36,70.3,112.8
"2017-09-19 15:17:42+00",31.7,34.7,,69,605,1196,86,1011.28,69.9,127.7
"2017-09-19 15:22:42+00",32.9,39.9,,69.1,722,1238,18,1011.36,69.7,97.2
"2017-09-19 15:27:42+00",32.4,38.4,,68.7,210,1080,356,1011.25,69.5,62.4
"2017-09-19 15:32:42+00",37.7,43.7,,69.5,412,1300,318,1011.19,69.5,119.6
"2017-09-19 15:37:42+00",34.1,38.1,,68.9,621,1150,172,1011.16,69.4,36.3
"2017-09-19 15:42:42+00",36.3,39.3,,69.4,908,1264,15,1011.09,69.3,56.5
"2017-09-19 15:47:42+00",36.9,42.9,,69.7,890,1231,62,1011.01,69.5,76.3
"2017-09-19 15:52:42+00",33.3,40.3,,69.6,785,1194,33,1011.07,69.6,97.9
"2017-09-19 15:57:42+00",32.8,38.8,,69.8,756,1202,16,1011.01,69.8,79.5
"2017-09-19 16:02:42+00",30.2,36.2,,70,737,1081,31,1011.01,70.1,75
"2017-09-19 16:07:42+00",29.7,37.7,,70.1,775,1009,29,1010.95,70.2,45.6
"2017-09-19 16:12:42+00",29.5,37.5,,70.1,694,1070,30,1010.89,70.2,78
"2017-09-19 16:17:42+00",32.6,36.6,,70.2,810,1138,17,1010.75,70.4,91.5
"2017-09-19 16:22:42+00",32.3,39.3,,70.2,732,1197,24,1010.68,70.3,73.9
"2017-09-19 16:27:42+00",33.2,37.2,,70.2,741,1234,-12,1010.69,70.3,75.3
"2017-09-19 16:32:42+00",30.1,33.1,,70,694,1091,10,1010.7,70.3,90.7
"2017-09-19 16:37:42+00",23.0,27.0,,70.1,459,879,29,1010.57,70.2,79.7
"2017-09-19 16:42:42+00",27.9,35.9,,69.9,612,1043,18,1010.5,70.1,114.5
"2017-09-19 16:47:42+00",35.3,40.3,,69.7,724,1344,6,1010.42,69.7,108.7
"2017-09-19 16:52:42+00",29.8,35.8,,69.8,540,1160,9,1010.38,69.9,170.1
"2017-09-19 16:57:42+00",27.5,33.5,,70.2,513,1053,19,1010.19,70.5,179.8
"2017-09-19 17:02:42+00",22.3,34.3,,70.4,351,876,30,1010.04,70.9,171.5
"2017-09-19 17:07:42+00",27.2,31.2,,70.3,503,1038,9,1010.06,71.1,150.2
"2017-09-19 17:12:42+00",29.6,36.6,,70.4,573,1139,10,1010.03,71.2,138.4
"2017-09-19 17:17:42+00",25.4,32.4,,70.1,556,933,15,1009.98,70.9,101.3
"2017-09-19 17:22:42+00",29.5,35.5,,69.5,590,1126,-1,1009.9,70,55.6
"2017-09-19 17:27:42+00",23.6,30.6,,69,283,811,159,1009.76,69.3,90.7
"2017-09-19 17:32:42+00",27.5,32.5,,69.1,717,884,20,1009.77,68.9,56.5
"2017-09-19 17:37:42+00",25.6,34.6,,69.1,436,928,58,1009.71,68.7,53.2
"2017-09-19 17:42:42+00",22.1,26.1,,69,266,895,25,1009.71,68.5,12.6
"2017-09-19 17:47:42+00",26.0,37.0,,69.1,447,1038,-27,1009.68,68.3,7.7
"2017-09-19 17:52:42+00",25.3,30.3,,69.3,467,978,6,1009.65,68.5,30.4
"2017-09-19 17:57:42+00",25.5,31.5,,69.8,415,985,17,1009.47,68.4,8.2
"2017-09-19 18:02:42+00",22.0,29.0,,69.6,390,831,13,1009.45,68.6,9.9
"2017-09-19 18:07:42+00",27.4,33.4,,69.8,309,1170,-18,1009.15,68.8,71.8
"2017-09-19 18:12:42+00",28.4,33.4,,69.7,677,1055,-20,1009.24,69,56.5
"2017-09-19 18:17:42+00",29.2,33.2,,69.6,604,1120,-34,1009.13,69.1,49.6
"2017-09-19 18:22:42+00",27.2,32.2,,69.8,412,1069,15,1009.03,69.3,97.8
"2017-09-19 18:27:42+00",27.3,36.3,,70,520,1074,-52,1009.01,69.5,86
"2017-09-19 18:32:42+00",29.4,40.4,,70,602,1296,-223,1008.91,69.3,36.2
"2017-09-19 18:37:42+00",29.8,35.8,,69.9,491,1591,-386,1008.85,69.1,27.3
"2017-09-19 18:42:42+00",28.0,34.0,,69.6,686,1089,-145,1008.84,68.8,12.4
"2017-09-19 18:47:42+00",28.1,35.1,,69.5,482,1155,-87,1008.9,68.7,8.2
"2017-09-19 18:52:42+00",24.9,31.9,,69.4,371,944,37,1008.76,68.7,24.2
"2017-09-19 18:57:42+00",27.8,33.8,,69.4,402,1038,51,1008.72,68.8,62
"2017-09-19 19:02:42+00",31.1,36.1,,69.7,780,1244,-176,1008.62,68.7,50.9
"2017-09-19 19:07:42+00",26.0,33.0,,69.7,350,966,96,1008.72,68.8,18.8
"2017-09-19 19:12:42+00",30.5,35.5,,69.4,856,1172,-151,1008.75,68.6,15.5
"2017-09-19 19:17:42+00",32.3,37.3,,69.1,532,1622,-294,1008.7,68.5,26.6
"2017-09-19 19:22:42+00",29.8,37.8,,69,374,1277,-35,1008.59,68.3,20.7
"2017-09-19 19:27:42+00",24.0,32.0,,68.7,623,803,35,1008.77,68.2,2.8
"2017-09-19 19:32:42+00",22.0,26.0,,68.5,448,825,42,1008.69,68.1,3.3
"2017-09-19 19:37:42+00",29.6,33.6,,68.5,726,1188,-158,1008.66,67.9,5.5
"2017-09-19 19:42:42+00",27.9,31.9,,68.7,400,1153,-53,1008.57,67.9,4
"2017-09-19 19:47:42+00",23.9,27.9,,68.7,465,755,147,1008.71,67.9,0.7
"2017-09-19 19:52:42+00",23.8,29.8,,68.6,373,935,-23,1008.78,67.9,6.3
"2017-09-19 19:57:42+00",25.1,30.1,,68.7,444,949,-3,1008.77,67.9,2.2
"2017-09-19 20:02:42+00",20.9,25.9,,68.8,289,844,4,1008.73,68,12.3
"2017-09-19 20:07:42+00",22.6,26.6,,68.8,366,887,16,1008.64,68,10.2
"2017-09-19 20:12:42+00",20.1,24.1,,68.8,340,789,22,1008.75,68.1,11.1
"2017-09-19 20:17:42+00",23.3,31.3,,68.8,341,928,-12,1008.64,68,2.2
"2017-09-19 20:22:42+00",25.2,29.2,,69,401,998,-2,1008.67,68,3.7
"2017-09-19 20:27:42+00",28.7,35.7,,68.8,517,1114,-19,1008.71,68,6.5
"2017-09-19 20:32:42+00",26.3,31.3,,68.8,510,1016,-48,1008.77,67.9,0.3
"2017-09-19 20:37:42+00",23.7,27.7,,68.7,423,903,2,1008.76,68,0
"2017-09-19 20:42:42+00",23.3,28.3,,68.7,253,946,15,1008.7,68,0.8
"2017-09-19 20:47:42+00",24.7,30.7,,68.7,378,985,-6,1008.67,68,0.3
"2017-09-19 20:52:42+00",22.2,28.2,,68.9,325,878,-1,1008.78,68.2,0.1
"2017-09-19 20:57:42+00",22.3,29.3,,68.8,216,939,12,1008.77,68.2,2.4
"2017-09-19 21:02:42+00",24.5,29.5,,68.9,309,991,27,1008.81,68.2,5.3
"2017-09-19 21:07:42+00",26.1,30.1,,68.8,373,1039,-12,1008.8,68.3,7
"2017-09-19 21:12:42+00",24.0,30.0,,68.6,387,983,-73,1008.75,68.2,2.3
"2017-09-19 21:17:42+00",26.3,33.3,,68.4,406,1015,-3,1008.67,68,1.8
"2017-09-19 21:22:42+00",27.1,34.1,,68.4,390,1063,-20,1008.61,67.9,0
"2017-09-19 21:27:42+00",27.4,30.4,,68.7,167,1172,7,1008.56,67.8,0
"2017-09-19 21:32:42+00",29.9,34.9,,68.8,332,1204,-13,1008.58,67.8,0
"2017-09-19 21:37:42+00",28.4,32.4,,68.9,270,1180,-16,1008.55,67.9,0
"2017-09-19 21:42:42+00",26.4,33.4,,68.8,791,1047,-230,1008.51,67.9,0
"2017-09-19 21:47:42+00",26.3,31.3,,68.7,476,1049,-82,1008.41,67.9,0
"2017-09-19 21:52:42+00",25.3,31.3,,68.7,315,1049,-11,1008.25,67.9,0
"2017-09-19 21:57:42+00",26.2,35.2,,68.7,385,1092,-58,1008.2,67.9,0
"2017-09-19 22:02:42+00",25.6,31.6,,68.6,224,1069,20,1008.25,67.9,0
"2017-09-19 22:07:42+00",25.2,35.2,,68.8,198,1050,22,1008.17,67.9,0
"2017-09-19 22:12:42+00",23.3,28.3,,68.9,141,998,27,1008.13,68,0
"2017-09-19 22:17:42+00",20.0,22.0,,68.9,129,863,33,1008.15,68.1,0
"2017-09-19 22:22:42+00",27.4,32.4,,69.2,141,1198,17,1008.09,68.2,0
"2017-09-19 22:27:42+00",26.3,30.3,,69.3,187,1135,-5,1007.97,68.3,0
"2017-09-19 22:32:42+00",25.7,29.7,,69.3,184,1100,18,1007.92,68.4,0
"2017-09-19 22:37:42+00",22.6,27.6,,69.4,173,968,22,1007.92,68.6,0
"2017-09-19 22:42:42+00",22.7,26.7,,69.4,193,963,22,1008.03,68.7,0
"2017-09-19 22:47:42+00",25.7,28.7,,69.5,121,1132,21,1007.9,68.8,0
"2017-09-19 22:52:42+00",22.7,24.7,,69.6,124,991,24,1008.03,68.9,0
"2017-09-19 22:57:42+00",24.0,28.0,,69.6,78,1057,34,1008.07,68.9,0
"2017-09-19 23:02:42+00",26.3,30.3,,69.6,252,1099,2,1007.9,68.9,0
"2017-09-19 23:07:42+00",25.3,30.3,,69.6,92,1119,18,1008.01,69,0
"2017-09-19 23:12:42+00",26.5,29.5,,69.5,126,1152,26,1008,69,0
"2017-09-19 23:17:42+00",23.4,26.4,,69.3,231,992,4,1008.04,68.8,0
"2017-09-19 23:22:42+00",23.7,27.7,,69.1,105,1037,33,1008.15,68.8,0
"2017-09-19 23:27:42+00",28.0,31.0,,69.2,309,1150,-4,1008.04,68.6,0
"2017-09-19 23:32:42+00",26.5,28.5,,69.1,154,1158,5,1008.11,68.6,0
"2017-09-19 23:37:42+00",24.2,27.2,,69,88,1054,18,1008.1,68.6,0
"2017-09-19 23:42:42+00",25.4,28.4,,69,65,1120,23,1008.16,68.6,0
"2017-09-19 23:47:42+00",24.1,27.1,,69.1,199,1037,16,1008.11,68.6,0
"2017-09-19 23:52:42+00",23.9,26.9,,69,182,1039,7,1008.12,68.6,0
"2017-09-19 23:57:42+00",23.8,27.8,,69,28,1021,92,1008.24,68.5,0
